Weather reports worldwide

Advertisment
Hemavan A, Sweden (2101): temperature & dewpoint: 14.10.2019 04:00:00 - 20.10.2019 04:00:00 (CEST)Hemavan A, Sweden (2101): wind speed: 14.10.2019 04:00:00 - 20.10.2019 04:00:00 (CEST)Hemavan A, Sweden (2101): wind direction: 14.10.2019 04:00:00 - 20.10.2019 04:00:00 (CEST)Hemavan A, Sweden (2101): reduced air pressure: 14.10.2019 04:00:00 - 20.10.2019 04:00:00 (CEST)Hemavan A, Sweden (2101): visibility: 14.10.2019 04:00:00 - 20.10.2019 04:00:00 (CEST)
Date & Time tt [°C] td [°C] ff [km/h] ff [kn] dd ppp [hPa] vv [km]
20.10.2019 04:00:00 -9,7 -10,8 4 2 N 1020,7 50
20.10.2019 03:00:00 -8,4 -10,0 4 2 NE 1020,2 50
20.10.2019 02:00:00 -6,1 -9,1 4 2 ESE 1019,4 50
20.10.2019 01:00:00 -5,0 -8,7 7 4 ESE 1018,8 50
20.10.2019 00:00:00 -2,9 -10,0 7 4 SSE 1017,8 50
19.10.2019 23:00:00 -2,5 -9,2 14 8 ENE 1017,3 50
19.10.2019 22:00:00 -2,6 -8,1 22 12 ENE 1016,7 50
19.10.2019 21:00:00 -2,4 -7,7 4 2 E 1016,0 50
19.10.2019 20:00:00 -1,6 -7,9 18 10 ESE 1015,3 50
19.10.2019 19:00:00 -1,3 -7,4 11 6 ESE 1014,2 50
19.10.2019 18:00:00 -0,9 -6,7 22 12 E 1013,0 50
19.10.2019 17:00:00 -0,4 -5,8 29 16 E 1012,0 50
19.10.2019 16:00:00 0,0 -4,8 25 14 E 1011,1 50
19.10.2019 15:00:00 0,5 -4,7 25 14 ENE 1010,3 45
19.10.2019 14:00:00 0,6 -4,1 25 14 E 1009,7 50
19.10.2019 13:00:00 0,6 -3,9 32 18 E 1009,4 50
19.10.2019 12:00:00 0,7 -3,2 29 16 E 1009,0 50
19.10.2019 11:00:00 0,8 -3,1 25 14 ENE 1008,5 50
19.10.2019 10:00:00 0,3 -0,6 7 4 N 1008,1 50
19.10.2019 09:00:00 0,1 -0,3 7 4 N 1007,8 30
19.10.2019 08:00:00 0,6 0,0 4 2 SSW 1007,2 10
19.10.2019 07:00:00 0,0 -0,1 0 0 N 1006,8 2,5
19.10.2019 06:00:00 -0,1 -0,2 0 0 N 1006,2 2,0
19.10.2019 05:00:00 0,0 -0,1 0 0 N 1005,9 5
19.10.2019 04:00:00 -0,1 -0,2 0 0 N 1005,6 1,8
19.10.2019 03:00:00 -0,1 -0,2 4 2 NW 1005,4 3,1
19.10.2019 02:00:00 0,0 -0,1 4 2 NW 1005,6 2,3
19.10.2019 01:00:00 0,6 0,5 0 0 N 1005,5 2,0
19.10.2019 00:00:00 0,3 0,2 0 0 N 1005,5 8
18.10.2019 23:00:00 0,2 0,1 0 0 N 1005,4 30
18.10.2019 22:00:00 0,3 -0,1 4 2 W 1005,4 40
18.10.2019 21:00:00 0,7 0,1 4 2 ESE 1005,3 35
18.10.2019 20:00:00 0,6 0,0 0 0 N 1005,6 7
18.10.2019 19:00:00 0,9 0,0 7 4 E 1005,5 40
18.10.2019 18:00:00 0,7 0,0 4 2 SSE 1005,5 16
18.10.2019 17:00:00 1,2 -0,4 4 2 E 1005,8 50
18.10.2019 16:00:00 1,2 -0,6 7 4 SE 1005,7 50
18.10.2019 15:00:00 1,4 -0,5 7 4 SE 1005,8 50
18.10.2019 14:00:00 1,2 -0,7 7 4 SE 1006,0 20
18.10.2019 13:00:00 1,1 -1,0 7 4 S 1006,3 40
18.10.2019 12:00:00 0,9 -1,2 11 6 S 1006,3 14
18.10.2019 11:00:00 0,7 -0,9 4 2 ESE 1006,5 50
18.10.2019 10:00:00 -0,1 -0,9 7 4 S 1006,9 3,6
18.10.2019 09:00:00 0,4 -1,5 11 6 SSE 1006,5 50
18.10.2019 08:00:00 0,0 -1,7 7 4 SE 1006,9 50
18.10.2019 07:00:00 -0,3 -2,0 7 4 ESE 1007,0 50
18.10.2019 06:00:00 0,1 -2,3 14 8 S 1007,3 50
18.10.2019 05:00:00 -0,2 -1,9 11 6 SE 1007,8 50
18.10.2019 04:00:00 0,1 -2,4 7 4 SSE 1008,3 50
18.10.2019 03:00:00 0,3 -2,4 11 6 S 1008,6 50
18.10.2019 02:00:00 0,6 -2,5 14 8 SSE 1008,8 50
18.10.2019 01:00:00 0,5 -2,5 14 8 SSE 1009,4 50
18.10.2019 00:00:00 0,4 -2,6 14 8 SSE 1009,7 50
17.10.2019 23:00:00 0,4 -2,8 14 8 SSE 1010,1 50
17.10.2019 22:00:00 0,4 -3,0 11 6 SSE 1010,4 50
17.10.2019 21:00:00 0,2 -3,2 14 8 SSE 1010,6 50
17.10.2019 20:00:00 0,2 -3,2 22 12 SE 1011,2 50
17.10.2019 19:00:00 0,3 -3,3 18 10 SE 1011,4 50
17.10.2019 18:00:00 0,2 -3,5 22 12 SE 1011,5 50
17.10.2019 17:00:00 0,2 -3,2 14 8 SSE 1011,9 50
17.10.2019 16:00:00 0,2 -3,2 18 10 ESE 1012,1 50
17.10.2019 15:00:00 0,3 -2,9 14 8 SE 1012,6 45
17.10.2019 14:00:00 -0,1 -2,6 22 12 SE 1013,4 2,4
17.10.2019 13:00:00 -0,1 -2,6 22 12 SE 1013,4 2,4
17.10.2019 12:00:00 0,2 -3,0 25 14 SSE 1013,9 9
17.10.2019 11:00:00 0,0 -2,9 14 8 SSE 1014,4 8
17.10.2019 10:00:00 -1,0 -2,7 11 6 S 1014,8 3,0
17.10.2019 09:00:00 -0,7 -3,2 18 10 SSE 1014,9 5
17.10.2019 08:00:00 -0,7 -4,2 22 12 ESE 1014,9 50
17.10.2019 07:00:00 -0,8 -4,3 22 12 SE 1015,3 50
17.10.2019 06:00:00 -1,0 -4,0 22 12 SSE 1015,8 50
17.10.2019 05:00:00 -0,9 -3,3 18 10 SSE 1016,3 50
17.10.2019 04:00:00 -1,1 -2,2 22 12 SE 1016,4 8
17.10.2019 03:00:00 -0,3 -2,4 22 12 SSE 1016,4 50
17.10.2019 02:00:00 -0,3 -2,4 18 10 SSE 1016,4 50
17.10.2019 01:00:00 -0,4 -2,1 18 10 SSE 1016,6 45
17.10.2019 00:00:00 -0,3 -2,5 22 12 SSE 1016,7 50
16.10.2019 23:00:00 -0,2 -3,1 22 12 SSE 1016,7 50
16.10.2019 22:00:00 -1,3 -2,7 4 2 NE 1016,9 50
16.10.2019 21:00:00 -1,7 -2,8 4 2 N 1016,9 50
16.10.2019 20:00:00 -2,7 -3,2 7 4 NNW 1017,0 50
16.10.2019 19:00:00 -2,8 -3,2 4 2 N 1017,1 50
16.10.2019 18:00:00 -3,1 -3,5 4 2 NNW 1017,2 50
16.10.2019 17:00:00 -3,4 -3,9 7 4 NW 1017,5 50
16.10.2019 16:00:00 -3,0 -3,5 4 2 W 1017,7 50
16.10.2019 15:00:00 -3,2 -3,7 7 4 WNW 1017,9 50
16.10.2019 14:00:00 -3,8 -4,3 7 4 W 1018,3 45
16.10.2019 13:00:00 -4,5 -5,0 7 4 WNW 1018,7 0,1
16.10.2019 12:00:00 -5,2 -5,7 4 2 NNW 1019,1 -
16.10.2019 11:00:00 -5,6 -6,1 4 2 NNE 1019,3 -
16.10.2019 10:00:00 -6,1 -6,6 0 0 N 1019,3 -
16.10.2019 09:00:00 -6,6 -7,4 4 2 E 1019,5 0,1
16.10.2019 08:00:00 -6,8 -7,6 4 2 ENE 1019,1 -
16.10.2019 07:00:00 -6,5 -7,1 4 2 E 1019,1 5
16.10.2019 06:00:00 -6,1 -6,6 4 2 E 1019,1 -
16.10.2019 05:00:00 -5,9 -6,4 4 2 E 1019,2 -
16.10.2019 04:00:00 -5,4 -5,9 4 2 S 1019,2 -
16.10.2019 03:00:00 -5,2 -5,7 0 0 N 1019,4 -
16.10.2019 02:00:00 -4,7 -5,2 4 2 SSW 1019,5 -
16.10.2019 01:00:00 -4,3 -4,8 4 2 S 1019,6 -
16.10.2019 00:00:00 -4,0 -4,5 4 2 S 1019,3 -
15.10.2019 23:00:00 -2,9 -3,0 0 0 N 1018,9 -
15.10.2019 22:00:00 -3,1 -3,5 7 4 ESE 1018,7 -
15.10.2019 21:00:00 -2,3 -2,4 11 6 ESE 1018,6 -
15.10.2019 20:00:00 -1,7 -2,1 11 6 ESE 1018,2 0,1
15.10.2019 19:00:00 -1,5 -2,1 7 4 ESE 1017,9 0,1
15.10.2019 18:00:00 -1,6 -2,0 7 4 SSE 1017,7 0,1
15.10.2019 17:00:00 -1,7 -2,1 4 2 NW 1017,5 0,1
15.10.2019 16:00:00 -1,0 -1,4 4 2 S 1017,4 0,1
15.10.2019 15:00:00 -1,2 -1,3 4 2 SW 1017,7 0,1
15.10.2019 14:00:00 -1,6 -1,7 4 2 SSE 1017,7 0,1
15.10.2019 13:00:00 -2,2 -2,6 4 2 SE 1017,9 0,1
15.10.2019 12:00:00 -2,9 -3,3 4 2 SE 1018,1 0,1
15.10.2019 11:00:00 -3,4 -3,8 4 2 SSE 1018,1 0,1
15.10.2019 10:00:00 -4,4 -4,9 4 2 SE 1018,3 0,1
15.10.2019 09:00:00 -5,0 -5,5 4 2 SE 1017,8 0,1
15.10.2019 08:00:00 -5,3 -5,8 0 0 N 1017,6 0,1
15.10.2019 07:00:00 -5,9 -6,4 0 0 N 1017,2 -
15.10.2019 06:00:00 -6,1 -6,6 0 0 N 1017,3 -
15.10.2019 05:00:00 -6,7 -7,5 0 0 N 1017,5 -
15.10.2019 04:00:00 -6,8 -7,6 4 2 ESE 1017,5 -
15.10.2019 03:00:00 -6,8 -7,6 0 0 N 1017,5 -
15.10.2019 02:00:00 -7,3 -8,0 0 0 N 1017,3 -
15.10.2019 01:00:00 -7,5 -8,2 0 0 N 1016,8 -
15.10.2019 00:00:00 -7,9 -8,8 0 0 N 1016,5 -
14.10.2019 23:00:00 -7,5 -8,4 4 2 S 1016,2 -
14.10.2019 22:00:00 -6,7 -7,5 0 0 N 1015,9 -
14.10.2019 21:00:00 -6,2 -6,7 0 0 N 1015,3 -
14.10.2019 20:00:00 -6,2 -6,7 4 2 SSW 1014,9 -
14.10.2019 19:00:00 -5,3 -5,8 0 0 N 1014,3 -
14.10.2019 18:00:00 -4,1 -4,5 4 2 SE 1013,9 -
14.10.2019 17:00:00 -3,6 -4,0 0 0 N 1013,2 -
14.10.2019 16:00:00 -3,3 -3,7 4 2 WSW 1012,9 -
14.10.2019 15:00:00 -3,4 -3,8 0 0 N 1012,5 -
14.10.2019 14:00:00 -3,7 -4,1 4 2 S 1012,4 -
14.10.2019 13:00:00 -3,8 -4,3 4 2 SSE 1012,2 -
14.10.2019 12:00:00 -4,1 -4,6 4 2 SE 1012,2 7
14.10.2019 11:00:00 -4,6 -5,1 0 0 N 1012,1 1,5
14.10.2019 10:00:00 -5,0 -5,5 0 0 N 1011,9 3,8
14.10.2019 09:00:00 -5,4 -5,9 0 0 N 1011,4 0,2
14.10.2019 08:00:00 -5,3 -5,8 4 2 NNE 1010,9 0,6
14.10.2019 07:00:00 -6,2 -6,7 4 2 S 1010,8 0,1
14.10.2019 06:00:00 -8,0 -8,7 4 2 E 1011,1 50
14.10.2019 05:00:00 -8,0 -8,7 4 2 SE 1011,1 50
14.10.2019 04:00:00 -7,4 -7,9 4 2 E 1010,7 50

tt = temperature
td = dewpoint
ff = wind speed
dd = wind direction
ppp = reduced air pressure
vv = visibility

Next stations